sat.trackr.live / text

‹ back to catalog

STARLINK-5213

NORAD 54093 · 2022-136AU

PAYLOAD ACTIVE UNKNOWN

§ Identity

Operator
Country
US
Launch date
2022-10-20
Launch site
AFETR
Launch vehicle
Mass (kg)
RCS (m²)

Purposes: comms

External: N2YO · Heavens-Above · Gunter

§ Orbital elements

Epoch: 2026-09-20T22:00:03.000096Z

Period
94.81 min
Inclination
53.1604°
Eccentricity
0.0002173
Mean motion
15.18775585 rev/d
Perigee alt
508.0 km
Apogee alt
511.0 km
Semi-major
6,887.7 km
B*
1.3909e-4
RAAN
176.2980°
Arg perigee
75.2556°
Mean anomaly
63.6617°
Rev number
569

§ Raw data

STARLINK-52131 54093U 22136AU  26263.91670139  .00002610  00000+0  13909-3 0  99932 54093  53.1604 176.2980 0002173  75.2556  63.6617 15.18775585  5699

JSON: /api/v1/satellites/54093 · /tle

For live sub-satellite position, see the globe view (requires WebGL).

§ Visibility from observer

Set your observer location to see the next 7 days of passes ≥ 10°. The values pass through the URL so the page stays shareable.

No JS? Fill the form by hand. The geolocation button needs JavaScript.